This is the latest recevied weather packets stored in our database for station/object KJ5FA-10. If no packets are shown the sender has not sent any weather packets the latest 10 day(s).
| Time | Temp. | Humidity | Pressure | Rain* | Wind** | Luminosity | Snow |
|---|---|---|---|---|---|---|---|
| 1777803872 | 6.67° C | 90% | 1022.2 hPa | 0 mm | - | - | - |
| 1777802971 | 6.67° C | 92% | 1022.2 hPa | 0 mm | - | - | - |
| 1777802073 | 6.67° C | 92% | 1022.1 hPa | 0 mm | - | - | - |
| 1777801171 | 6.67° C | 91% | 1022.2 hPa | 0 mm | - | - | - |
| 1777800271 | 7.22° C | 91% | 1022.4 hPa | 0 mm | - | - | - |
| 1777799371 | 7.22° C | 90% | 1022 hPa | 0 mm | - | - | - |
| 1777798471 | 7.78° C | 89% | 1022.1 hPa | 0 mm | - | - | - |
| 1777797570 | 8.33° C | 88% | 1022.1 hPa | 0 mm | - | - | - |
| 1777796671 | 8.33° C | 88% | 1022 hPa | 0 mm | - | - | - |
| 1777795771 | 7.78° C | 89% | 1022.3 hPa | 0 mm | - | - | - |
| 1777794870 | 8.33° C | 88% | 1022 hPa | 0 mm | - | - | - |
| 1777793972 | 8.33° C | 87% | 1022.2 hPa | 0 mm | - | - | - |
| 1777793070 | 8.33° C | 85% | 1022 hPa | 0 mm | - | - | - |
| 1777792350 | 8.89° C | 84% | 1022.1 hPa | 0 mm | - | - | - |
| 1777791276 | 9.44° C | 82% | 1022.2 hPa | 0 mm | - | - | - |
| 1777790376 | 9.44° C | 83% | 1022.4 hPa | 0 mm | - | - | - |
| 1777789477 | 9.44° C | 82% | 1022.1 hPa | 0 mm | - | - | - |
| 1777788577 | 10° C | 80% | 1022 hPa | 0 mm | - | - | - |
| 1777787678 | 10.56° C | 78% | 1021.9 hPa | 0 mm | - | - | - |
| 1777786777 | 11.11° C | 76% | 1022.1 hPa | 0 mm | - | - | - |
| 1777785877 | 11.11° C | 73% | 1021.8 hPa | 0 mm | - | - | - |
| 1777784977 | 11.11° C | 73% | 1021.9 hPa | 0 mm | - | - | - |
| 1777784077 | 11.11° C | 76% | 1021.9 hPa | 0 mm | - | - | - |
| 1777783177 | 11.67° C | 74% | 1021.8 hPa | 0 mm | - | - | - |
| 1777782278 | 11.67° C | 73% | 1021.4 hPa | 0 mm | - | - | - |
* Rain latest hour (hover to see other rain measurements)
** Current wind speed in m/s (hover to see current wind gust speed)